CDT,Max TemperatureF,Mean TemperatureF,Min TemperatureF,Max Dew PointF,MeanDew PointF,Min DewpointF,Max Humidity, Mean Humidity, Min Humidity, Max Sea Level PressureIn, Mean Sea Level PressureIn, Min Sea Level PressureIn, Max VisibilityMiles, Mean VisibilityMiles, Min VisibilityMiles, Max Wind SpeedMPH, Mean Wind SpeedMPH, Max Gust SpeedMPH,PrecipitationIn, CloudCover, Events, WindDirDegrees
2014-3-1,14,6,-2,4,-3,-11,76,71,65,30.56,30.32,30.07,10,7,1,20,13,23,T,8,Snow,44
2014-3-2,13,4,-5,-3,-8,-15,75,64,52,30.65,30.57,30.38,10,10,10,12,5,14,T,6,,56
2014-3-3,35,17,-1,24,8,-6,88,74,59,30.53,30.24,30.07,10,10,10,25,8,32,0.00,0,,169
2014-3-4,49,33,17,35,24,16,92,73,53,30.11,29.97,29.86,10,10,7,21,6,25,T,4,,314
2014-3-5,43,33,22,30,22,15,85,74,62,30.30,30.21,30.10,10,10,8,13,5,16,0.00,5,,72
2014-3-6,65,47,28,34,30,23,85,60,34,30.15,29.88,29.72,10,10,8,17,8,23,0.00,0,,184
2014-3-7,44,35,25,33,26,18,85,76,67,30.30,30.00,29.73,10,7,1,25,12,32,0.04,6,Rain-Snow,6
2014-3-8,54,36,17,33,25,15,92,69,45,30.39,30.30,30.25,10,10,10,10,4,14,0.00,3,,259
2014-3-9,73,50,27,31,27,23,85,51,16,30.23,30.00,29.85,10,10,10,23,9,29,0.00,0,,280
2014-3-10,73,50,27,33,30,24,92,56,20,29.93,29.79,29.54,10,10,10,18,7,21,0.00,0,,284
2014-3-11,54,40,25,37,30,22,89,62,35,30.31,29.82,29.45,10,9,1,30,17,39,0.02,5,Rain,358
2014-3-12,56,38,20,26,21,15,92,56,20,30.32,30.25,30.14,10,10,10,25,12,32,0.00,0,,294
2014-3-13,68,44,19,28,20,11,92,52,5,30.16,29.95,29.69,10,10,6,21,7,26,0.00,0,,283
2014-3-14,63,46,28,28,25,22,78,49,20,30.04,29.91,29.74,10,10,10,23,10,31,0.00,0,,270
2014-3-15,55,41,26,30,25,22,76,56,35,30.32,29.95,29.75,10,10,10,26,13,34,0.00,3,,333
2014-3-16,51,39,26,25,23,21,84,60,36,30.42,30.26,29.98,10,10,10,16,9,21,0.00,6,,339
2014-3-17,75,51,27,32,23,18,85,49,12,29.93,29.52,29.21,10,10,10,23,8,29,0.00,1,,205
2014-3-18,54,41,28,33,29,27,89,65,41,30.08,29.63,29.24,10,6,0,36,17,44,0.18,7,Fog-Snow,345
2014-3-19,54,35,16,28,23,15,96,63,30,30.19,30.12,30.03,10,10,6,23,9,30,0.00,1,,293
2014-3-20,65,42,19,27,20,12,91,52,13,30.04,29.91,29.78,10,10,10,18,6,25,0.00,0,,263
2014-3-21,52,41,30,29,23,20,72,51,29,30.32,30.05,29.77,10,10,10,29,15,38,0.00,1,,351
2014-3-22,31,20,8,21,18,8,84,77,69,30.62,30.40,30.27,10,5,0,17,9,21,0.19,8,Snow,35
2014-3-23,32,17,2,25,12,0,100,87,74,30.61,30.39,30.08,10,6,0,21,9,26,T,5,Fog,157
2014-3-24,44,33,22,24,21,18,88,64,40,30.37,30.30,30.23,10,10,10,21,9,34,0.00,6,,351
2014-3-25,47,33,18,23,16,7,75,55,34,30.46,30.27,29.98,10,10,10,18,10,24,0.00,4,,242
2014-3-26,76,51,25,42,29,20,82,50,18,29.93,29.54,29.29,10,10,9,29,14,38,T,1,,149
2014-3-27,48,37,26,43,32,24,96,75,53,29.96,29.54,29.27,10,6,1,29,14,35,0.23,7,Rain-Snow,341
2014-3-28,58,40,22,32,26,18,92,62,32,30.27,30.04,29.90,10,9,6,31,10,39,T,2,,24
2014-3-29,70,44,17,30,22,15,92,55,17,30.28,30.11,29.87,10,10,10,28,10,36,0.00,0,,177
2014-3-30,70,50,29,35,30,25,78,50,22,29.85,29.69,29.39,10,10,10,15,7,21,0.00,0,,118
2014-3-31,60,41,22,37,28,18,89,63,36,30.13,29.69,29.30,10,7,0,41,22,52,0.13,6,Fog-Rain-Snow,304